{"data":{"norad_id":65280,"intl_designator":"2025-184H","name":"STARLINK-35001","alt_names":[],"object_type":"PAYLOAD","status":"ACTIVE","operator":null,"country":"US","launch_date":"2025-08-22","launch_site_code":"AFWTR","launch_vehicle":null,"mission":null,"orbit_class":"UNKNOWN","rcs_meters":null,"size_class":null,"mass_kg":null,"dimensions":null,"purposes":["comms"],"wikipedia_slug":null,"has_3d_model":false,"image_url":null,"decayed_at":null,"tle_current":{"epoch":"2026-09-20T14:15:17.930592Z","epoch_age_seconds":109454,"freshness":"FRESH","line1":"1 65280U 25184H   26263.59395753  .00010788  00000+0  33592-3 0  9994","line2":"2 65280  97.2863 311.4866 0000532 150.4236 209.7037 15.33453714 60738","mean_motion":15.33453714,"eccentricity":5.32e-5,"inclination_deg":97.2863,"raan_deg":311.4866,"arg_perigee_deg":150.4236,"mean_anomaly_deg":209.7037,"bstar":0.00033592,"rev_number":6073,"period_min":93.905671025686,"perigee_km":465.15316546174,"apogee_km":465.88133027371,"semimajor_km":6843.6542478677,"source":"CELESTRAK","updated_at":"2026-09-21T09:00:35.565057Z"}}}